Weather in Topolinoye

Russia / Sakha (Yakutia) Republic     64°04′23″N   135°57′46″E
temp.,
°C
wind,
m/s
gust,
m/s
humid.,
%
clouds,
%
prec.,
mm/h
press.,
hPa
HPBL,
m
24 january, mon
mon2400:00−35e1110094 0.1 10299
03:00−38n1110094 0.1 10309
06:00−39ne1110094 0.0 10309
09:00−40ne1110089 0.1 10319
12:00−37nne1110094 0.0 102927
15:00−38ne1110089 0.0 10299
18:00−39ne0110096 0.0 10309
21:00−36ene009892 0.0 10289
25 january, tue
tue2500:00−33se0196100 0.0 102656
03:00−31w0198100 0.2 102484
06:00−29ne0098100 0.3 102374
09:00−29nnw1199100 0.6 102315
12:00−29nw119765 0.1 102351
15:00−33n0010081 0.1 10259
18:00−37ne0010092 0.0 10279
21:00−33w0010096 0.1 102634
26 january, wed
wed2600:00−38ese0010083 0.0 10289
03:00−40n0110090 0.0 10299
06:00−39ne00100100 0.0 102913
09:00−35ne0098100 0.1 102834
12:00−32e0096100 0.1 102777
15:00−31e019896 0.1 102612
18:00−33e1110084 0.1 10289
21:00−36ene1110090 0.1 10309
27 january, thu
thu2700:00−40nne1110096 0.0 10328
03:00−43nne1110087 0.0 10348
06:00−45nne1110090 0.0 10359
09:00−45nne1110088 0.0 103610
12:00−39nne1110088 0.0 103434
15:00−41ne1110068 0.0 103510
18:00−43ne1110068 0.0 103710
21:00−43ne1110076 0.0 103811
28 january, fri
fri2800:00−43ne1110073 0.0 103711
03:00−42nne229947 0.0 103712
06:00−39nne229719 0.0 103513
09:00−37nne32925 0.0 103315
12:00−29n3383100 0.0 102963
15:00−29n3382100 0.0 102817
18:00−32nne328121 0.0 102814
21:00−32nne227986 0.0 102812